This demonstration page uses our WeatherBlox Daily Observations layout. Learn more.

Left ArrowRight Arrow

53.62937, 11.41316

Hourly Observations for March 26, 2021

Temp ( °F °C ) Dew Point ( °F °C ) Humidity (%) Winds ( mph kmh ) Pressure ( in mb ) Visibility ( mi km ) Precip ( " mm )
7:20 am 07:20 Partly Cloudy with Mist and Fog 43 6 39 4 87 87 SE 6 9 30.06 1018 2 4 N/A
7:50 am 07:50 Mostly Sunny 45 7 41 5 87 87 VRB 3 6 30.06 1018 4 6 N/A
8:20 am 08:20 Mostly Sunny 46 8 41 5 82 82 SE 6 9 30.06 1018 6 9 N/A
8:50 am 08:50 Mostly Sunny 48 9 43 6 82 82 SE 7 11 30.06 1018 7 11 N/A
9:20 am 09:20 Mostly Sunny 50 10 43 6 76 76 S 8 13 30.06 1018 7 11 N/A
9:50 am 09:50 Mostly Sunny 52 11 45 7 77 77 S 12 19 30.06 1018 7 11 N/A
10:20 am 10:20 Mostly Sunny 54 12 43 6 67 67 S 12 19 30.06 1018 7 11 N/A
10:50 am 10:50 Mostly Sunny 55 13 41 5 59 59 SSE 12 19 30.06 1018 7 11 N/A
11:20 am 11:20 Mostly Sunny 55 13 39 4 55 55 S 12 19 30.03 1017 7 11 N/A
11:50 am 11:50 Mostly Sunny 57 14 39 4 51 51 S 13 20 30.03 1017 7 11 N/A
12:20 pm 12:20 Mostly Sunny 57 14 37 3 48 48 S 14 22 30.03 1017 30 48 N/A
12:50 pm 12:50 Mostly Sunny 59 15 39 4 48 48 SSW 13 20 30.03 1017 30 48 N/A
1:20 pm 13:20 Mostly Sunny 59 15 39 4 48 48 S 12 19 30.00 1016 30 48 N/A
1:50 pm 13:50 Mostly Sunny 59 15 39 4 48 48 S 9 15 30.00 1016 7 11 N/A
2:20 pm 14:20 Mostly Sunny 59 15 37 3 45 45 S 9 15 30.00 1016 7 11 N/A
2:50 pm 14:50 Mostly Sunny 59 15 37 3 45 45 S 8 13 29.97 1015 7 11 N/A
3:20 pm 15:20 Mostly Sunny 59 15 37 3 45 45 SSE 8 13 29.97 1015 7 11 N/A
3:50 pm 15:50 Mostly Sunny 59 15 39 4 48 48 S 9 15 29.97 1015 7 11 N/A
4:20 pm 16:20 Mostly Sunny 59 15 39 4 48 48 S 9 15 29.94 1014 7 11 N/A
4:50 pm 16:50 Mostly Sunny 59 15 37 3 45 45 SSE 9 15 29.94 1014 7 11 N/A
5:20 pm 17:20 Mostly Sunny 59 15 37 3 45 45 SE 6 9 29.94 1014 7 11 N/A
5:50 pm 17:50 Mostly Sunny 59 15 37 3 45 45 SE 6 9 29.94 1014 7 11 N/A
6:20 pm 18:20 Mostly Sunny 57 14 37 3 48 48 SE 5 7 29.91 1013 7 11 N/A
6:50 pm 18:50 Mostly Clear 55 13 37 3 51 51 SE 3 6 29.91 1013 7 11 N/A
7:20 pm 19:20 Mostly Clear 54 12 37 3 54 54 ESE 3 6 29.91 1013 7 11 N/A
7:50 pm 19:50 Mostly Clear 54 12 39 4 58 58 VRB 2 4 29.91 1013 7 11 N/A

Powered by AerisWeather